Location: Baia Mare
(47.6567°N, 23.5850°E)
Time: 13:33:33
(UTC+02:00)

ISS - Pass Details

Date: 11 December 2018
Orbit: 401 x 408 km, 51.6° (Epoch: 16 December)

Event Time Altitude Azimuth Distance (km) Brightness Sun altitude
Rises 17:37:34 0° 293° (WNW) 2,320 0.7 -10.2°
Reaches altitude 10° 17:39:40 10° 291° (WNW) 1,458 -0.3 -10.6°
Maximum altitude 17:42:54 67° 208° (SSW) 439 -3.5 -11.1°
Drops below altitude 10° 17:46:08 10° 125° (SE) 1,449 -1.3 -11.6°
Enters shadow 17:46:53 - 124° (SE) 1,758 -0.9 -11.7°
